Location: Gr�na
(50.6544°N, 12.0238°E)
Time: 11:24:56
(UTC+00:00)

Daily predictions for brighter satellites

Satellite Brightness Start Highest point End
(mag) Time Altitude Azimuth Time Altitude Azimuth Time Altitude Azimuth
Cosmos 1140 Rocket 3.6 19:05:12 10° S 19:10:18 54° ESE 19:15:26 10° NNE
USA 276 2.1 19:07:42 10° W 19:10:53 81° S 19:14:04 10° E
MetOp-A 4.3 19:07:23 10° SSE 19:12:44 81° WSW 19:18:08 10° NNW
Cosmos 2360 Rocket 3.9 19:10:49 10° NNW 19:15:07 21° NE 19:19:23 10° E
X-37B 1.7 19:12:21 10° WSW 19:15:10 29° S 19:17:58 10° ESE
ATLAS 5 CENTAUR R/B 4.2 19:11:12 10° WNW 19:15:56 26° WSW 19:21:15 10° S
Cosmos 921 Rocket 3.5 19:12:34 10° N 19:16:38 43° ENE 19:20:37 10° SE
Cosmos 1707 Rocket 3.5 19:14:23 10° N 19:18:45 88° ENE 19:23:05 10° S
FALCON 9 DEB 3.2 19:15:55 10° SW 19:19:22 61° SSE 19:22:50 10° ENE
Cosmos 44 4.3 19:18:42 10° NNW 19:23:11 36° NE 19:27:52 10° ESE
Genesis I 3.8 19:19:24 10° NW 19:23:12 52° SW 19:26:57 10° SSE
USA 186 3.9 19:21:52 10° SW 19:23:26 17° W 19:25:00 10° NW
Cosmos 1980 Rocket 2.3 19:19:03 10° NNW 19:24:46 84° WSW 19:30:24 10° SSE
OBJECT-B 1.1 19:22:03 10° S 19:25:20 72° W 19:28:38 10° NNW
CZ-2C R/B 3.7 19:23:26 10° NNE 19:28:01 61° ESE 19:32:28 10° S
Intercosmos 25 3.8 19:25:19 10° NNW 19:29:23 58° W 19:32:33 10° S
Cosmos 1470 Rocket 4.2 19:29:41 10° SSE 19:33:44 37° E 19:37:47 10° NNE
Meteor 1-4 Rocket 2.6 19:33:43 10° NNW 19:37:12 75° W 19:40:38 10° S
Cosmos 1833 Rocket 3.0 19:31:57 10° SW 19:37:33 73° WNW 19:43:13 10° NNE
NOSS 3-2 (A) 3.6 19:32:13 10° SSW 19:37:41 49° ESE 19:43:57 10° NE
Cosmos 1697 Rocket 3.9 19:32:41 10° NW 19:37:53 40° WSW 19:43:03 10° S
Cosmos 1184 Rocket 3.0 19:35:06 10° S 19:38:17 48° E 19:41:30 10° NNE
Meteor 2-20 Rocket 4.5 19:32:33 10° N 19:38:46 75° ENE 19:44:55 10° SSE
USA 267 3.9 19:33:23 10° ENE 19:39:08 32° SE 19:44:52 10° SSW
Sich 1 3.6 19:35:40 10° SSW 19:40:05 65° WNW 19:44:31 10° N
SPOT 5 4.0 19:40:40 12° ESE 19:43:44 25° ENE 19:47:22 10° N
Cosmos 405 Rocket 3.5 19:42:21 11° SSE 19:45:26 31° E 19:48:48 10° NNE
Cosmos 1862 Rocket 3.6 19:41:42 10° N 19:46:12 84° E 19:50:37 10° S
SL-27 R/B 4.1 19:46:33 14° ESE 19:46:50 14° E 19:48:42 10° ENE
NOSS 3-2 (C) 3.9 19:41:56 10° S 19:47:08 37° ESE 19:53:00 10° NE
Cosmos 1437 Rocket 3.7 19:44:08 10° N 19:47:34 31° ENE 19:49:58 16° SE
SPOT 1/Viking Rocket 3.9 19:45:04 13° SE 19:49:35 51° ENE 19:54:39 10° N
Cosmos 1934 Rocket 4.0 19:45:00 10° S 19:51:22 83° E 19:57:46 10° N
Cosmos 2333 Rocket 4.1 19:48:12 10° NNW 19:52:21 20° NNE 19:56:28 10° E
ERBS 4.3 19:49:50 10° WNW 19:52:43 26° N 19:55:35 10° ENE
Landsat 7 3.9 19:48:45 13° SSE 19:52:59 62° ENE 19:57:42 10° N
Resurs 01 Rocket 1.9 19:48:41 10° S 19:53:05 67° WSW 19:57:31 10° NNW
USA 32 4.1 19:49:05 10° S 19:54:13 62° E 19:59:24 10° NNE
Cosmos 676 Rocket 4.0 19:54:01 10° SSW 19:59:21 85° ESE 20:04:44 10° NNE
ERS-1 Rocket 3.6 19:56:12 16° SE 19:59:51 43° ENE 20:04:35 10° N
GP-B 3.1 19:55:56 10° N 20:00:24 74° E 20:04:51 10° S
Okean 1 3.4 19:59:15 10° N 20:03:17 61° ENE 20:06:08 18° SSE
Cosmos 841 Rocket 4.1 19:58:56 10° NNW 20:03:56 43° ENE 20:07:29 18° ESE
Meteor 1-19 Rocket 4.2 19:58:43 10° N 20:04:07 62° ENE 20:08:21 17° SSE
CARTOSAT-1 4.0 20:06:55 20° SE 20:09:36 46° ENE 20:13:45 10° N
BREEZE-M DEB (TANK) 1.5 20:08:51 10° W 20:11:20 59° S 20:11:50 40° SE
Cosmos 468 Rocket 4.0 20:06:09 10° NNW 20:11:30 88° WSW 20:15:29 18° SSE
Cosmos 1867 3.8 20:07:23 10° SW 20:12:50 76° NW 20:18:20 10° NE
Cosmos 1933 Rocket 3.5 20:10:14 11° S 20:14:25 67° E 20:18:51 10° NNE
USA 234 3.3 20:10:46 15° ESE 20:16:21 81° NNE 20:22:55 10° WNW
SL-4 R/B 1.8 20:13:00 10° W 20:16:58 83° N 20:20:23 12° ENE
ATLAS 3B R/B 3.5 20:14:38 18° SSE 20:17:39 25° ESE 20:22:50 10° ENE
IGS 5A 3.5 20:15:48 17° S 20:18:59 76° WSW 20:23:09 10° NNW
Meteor 2-4 Rocket 3.9 20:15:23 10° N 20:20:56 54° ENE 20:24:18 23° SE
Cosmos 1869 Rocket 4.2 20:23:53 25° SE 20:25:43 37° E 20:29:50 10° NNE
Iridium 4 Rocket 4.1 20:25:27 24° ESE 20:26:41 27° E 20:30:14 10° NNE
Cosmos 1814 Rocket 4.3 20:22:32 10° NNW 20:27:40 53° ENE 20:30:36 25° SE
Meteor 1-14 Rocket 4.3 20:23:17 13° S 20:28:36 66° E 20:34:32 10° NNE
Spot 2 Rocket 3.8 20:25:34 15° S 20:29:44 67° WSW 20:34:50 10° NNW
SL-16 R/B 2.2 20:24:55 10° NNW 20:30:38 84° WSW 20:34:14 24° SSE
Cosmos 2219 Rocket 3.7 20:26:18 10° NNW 20:31:05 27° NE 20:35:05 13° E
CZ-4B DEB 4.3 20:30:11 34° SSE 20:31:30 79° ENE 20:34:51 10° N
Okean 1-7 2.9 20:29:19 10° N 20:33:41 85° E 20:35:59 27° SSE
Cosmos 1741 Rocket 4.0 20:28:31 10° S 20:33:43 66° ESE 20:38:59 10° NNE
Cosmos 1703 Rocket 3.5 20:30:23 10° NNW 20:34:46 85° W 20:37:16 25° S
USA 238 DEB 3.7 20:30:10 10° SW 20:36:50 85° NW 20:43:51 10° NE
ATLAS 5 CENTAUR R/B 2.2 20:34:34 10° NW 20:36:57 49° NE 20:39:34 22° ESE
USA 238 3.7 20:30:17 10° SW 20:36:57 86° NW 20:43:58 10° NE
Cosmos 1570 Rocket 4.0 20:34:27 10° NNW 20:39:49 80° ENE 20:42:42 28° SSE
Meteor 1-18 Rocket 4.5 20:34:17 10° NNW 20:39:49 67° W 20:44:01 18° S
Cosmos 2082 Rocket 3.4 20:36:30 10° WSW 20:41:56 44° NW 20:47:22 10° NNE
Terra 1.9 20:40:06 29° SE 20:42:23 62° ENE 20:47:07 10° N
Lacrosse 5 2.6 20:38:32 10° WNW 20:43:19 42° SW 20:45:36 26° S
Cosmos 1238 Rocket 3.6 20:44:11 13° SW 20:46:32 36° WNW 20:49:23 10° N
USA 276 2.6 20:44:02 10° W 20:47:04 43° SSW 20:47:07 43° SSW
CENTAUR R/B 2.5 20:41:17 10° SW 20:47:18 77° SE 20:54:31 10° NE
Cosmos 1605 Rocket 4.4 20:41:55 10° SSW 20:47:57 61° WNW 20:54:00 10° N
Cosmos 2208 Rocket 4.0 20:43:18 10° NNW 20:48:36 79° ENE 20:51:06 32° SSE
Cosmos 1763 Rocket 4.1 20:44:00 10° NNW 20:49:11 52° WSW 20:52:27 22° S
Cosmos 2100 Rocket 4.0 20:45:27 23° SSE 20:49:20 63° E 20:55:25 10° NNE
Cosmos 2322 Rocket 2.3 20:43:41 10° NNW 20:49:24 75° WSW 20:52:29 28° SSE
X-37B 2.5 20:48:47 10° WSW 20:50:24 19° SW 20:50:24 19° SW
FALCON 9 DEB 3.7 20:52:59 10° W 20:56:28 59° N 20:58:46 19° ENE
Cosmos 2173 Rocket 3.9 20:52:59 25° S 20:56:41 67° E 21:02:45 10° NNE
Cosmos 2237 4.2 20:51:31 10° NNW 20:57:17 82° ENE 20:59:59 33° SE
Cosmos 1733 Rocket 4.2 20:57:31 27° E 20:57:51 27° E 21:01:35 10° NNE
Cosmos 2084 Rocket 3.3 20:55:01 10° SW 20:59:12 81° SE 21:03:32 10° NE
Cosmos 2360 Rocket 2.2 20:54:20 10° NNW 21:00:03 79° ENE 21:02:39 34° SE
Cosmos 1500 3.0 20:59:53 47° S 21:00:51 78° E 21:04:37 10° NNE
Cosmos 44 3.8 20:59:50 10° NW 21:04:37 53° WSW 21:06:35 33° S
Cosmos 1725 Rocket 4.4 21:04:43 32° SE 21:07:14 47° E 21:13:16 10° NNE
SAR-Lupe-2 3.6 21:05:31 10° NNE 21:09:07 78° WNW 21:10:12 43° SSW
Cosmos 1356 4.2 21:10:48 38° ENE 21:10:48 38° ENE 21:13:34 10° NNE
Cosmos 1666 3.0 21:11:57 46° E 21:11:57 46° E 21:15:32 10° NNE
Cosmos 1459 Rocket 4.0 21:08:09 25° S 21:12:07 84° E 21:18:32 10° N
Cosmos 2016 Rocket 4.1 21:13:23 32° SSE 21:16:21 65° E 21:22:41 10° NNE
Cosmos 1242 Rocket 3.1 21:12:58 10° N 21:16:29 44° ENE 21:16:36 44° E
COSMOS 2428 3.4 21:13:44 10° NNW 21:19:14 44° NE 21:21:52 28° ESE
Cosmos 44 Rocket 4.1 21:15:15 10° NNW 21:20:02 47° NE 21:22:15 29° E
Cosmos 2221 Rocket 3.5 21:15:51 10° N 21:20:22 87° ENE 21:21:32 50° SSE
Cosmos 2346 Rocket 4.3 21:14:30 10° N 21:20:36 83° E 21:23:12 37° SSE
SL-27 R/B 3.4 21:20:03 25° WSW 21:21:34 43° WNW 21:24:46 10° NNE
SPOT 5 3.5 21:19:54 29° SSW 21:21:39 43° W 21:25:53 10° NNW
USA 267 3.2 21:16:09 10° ENE 21:22:43 85° SSE 21:29:18 10° WSW
Cosmos 1743 4.3 21:28:20 23° ENE 21:28:20 23° ENE 21:30:50 10° NE
Cosmos 540 Rocket 4.1 21:22:51 10° NW 21:27:49 47° WSW 21:29:45 32° SSW
Cosmos 1378 4.0 21:24:50 10° N 21:28:16 35° ENE 21:28:16 35° ENE
NOSS 3-2 (A) 4.4 21:22:48 10° WSW 21:28:35 50° NNW 21:35:18 10° NE
Cosmos 2237 Rocket 3.8 21:24:13 10° NNW 21:28:59 27° NE 21:32:28 15° E
Lacrosse 4 Rocket 2.2 21:29:55 35° E 21:29:55 35° E 21:32:57 10° NE
ERBS 3.5 21:26:29 10° NW 21:29:36 37° NNE 21:30:19 32° NE
Cosmos 1864 Rocket 4.5 21:27:52 37° SSE 21:30:23 69° E 21:36:38 10° NNE
Cosmos 1378 Rocket 4.0 21:28:28 10° N 21:32:47 46° ENE 21:33:20 43° E
Cosmos 1271 Rocket 3.5 21:31:53 10° N 21:35:26 37° ENE 21:35:26 37° ENE
NOSS 3-2 (C) 4.0 21:31:52 10° WSW 21:37:43 60° NW 21:44:31 10° NE
Cosmos 2333 Rocket 2.4 21:31:58 10° NNW 21:37:45 68° ENE 21:39:44 41° SE
ERS-1 Rocket 4.3 21:36:12 20° SW 21:38:46 31° W 21:43:13 10° NNW
Cosmos 2061 Rocket 3.9 21:37:27 34° S 21:40:21 89° W 21:46:36 10° N
Meteor 1-11 Rocket 3.7 21:42:34 38° SSW 21:44:51 88° W 21:50:43 10° NNE
Cosmos 1066 Rocket 4.1 21:40:27 10° NNW 21:46:11 89° WSW 21:47:48 49° S
Cosmos 2233 Rocket 4.1 21:45:59 43° SSE 21:47:54 61° E 21:54:09 10° NNE
Cosmos 1802 Rocket 4.3 21:45:24 27° SSW 21:49:06 68° WNW 21:55:26 10° N
Cosmos 1975 Rocket 4.4 21:48:47 10° N 21:52:42 28° ENE 21:53:12 27° E
COSMOS 2487 3.1 21:55:26 48° NNE 21:55:26 48° NNE 21:58:02 10° NNE
SL-4 R/B 2.2 21:52:52 10° WNW 21:55:57 56° WNW 21:55:57 56° WNW
Thor Agena Rocket 3.7 21:52:45 10° NNE 21:57:45 52° E 21:58:13 51° ESE
USA 234 3.7 21:58:07 37° S 21:59:44 43° SW 22:05:55 10° WNW
Spot 4 3.7 22:03:39 66° SSE 22:04:21 90° WSW 22:09:13 10° NNW
Iridium 4 Rocket 4.5 22:05:13 25° WSW 22:06:37 31° WNW 22:10:21 10° NNW
ATLAS 3B R/B 2.6 22:01:44 14° SW 22:07:36 85° NW 22:14:19 10° NE
Cosmos 2227 Rocket 4.2 22:09:36 13° E 22:09:36 13° E 22:11:43 10° ENE
Cosmos 1536 3.5 22:12:10 44° W 22:12:35 46° WNW 22:16:27 10° N
SL-16 R/B 4.3 22:10:39 10° WNW 22:13:52 16° W 22:16:06 13° WSW
Cosmos 2219 Rocket 2.1 22:09:57 10° NNW 22:15:39 77° WSW 22:16:46 58° S
Cosmos 1674 Rocket 3.9 22:13:40 10° NNW 22:17:54 53° W 22:18:08 52° WSW
NOSS 0 Rocket 4.0 22:12:18 10° NNW 22:18:35 71° NE 22:20:35 44° SE
Terra 3.7 22:18:59 17° WSW 22:20:34 20° W 22:24:02 10° NW
Cosmos 2322 4.1 22:17:13 10° NW 22:22:40 50° WSW 22:23:35 45° SW
Cosmos 1842 3.7 22:20:02 10° N 22:23:29 54° NE 22:23:29 54° NE
EO 1 Del DPAF 3.7 22:20:41 10° NNE 22:23:43 55° NE 22:23:43 55° NE
MOS 1-B Rocket 4.0 22:22:17 10° N 22:27:52 66° WNW 22:29:54 40° SW
Cosmos 2344 4.4 22:19:41 10° NW 22:28:37 71° NE 22:39:29 14° ESE
Cosmos 1503 Rocket 4.0 22:29:01 63° SE 22:29:25 65° ESE 22:34:45 10° NNE
Okean 2 3.5 22:27:57 10° N 22:31:45 73° NNE 22:31:45 73° NNE
Cosmos 2322 Rocket 4.4 22:29:45 10° WNW 22:32:28 14° W 22:34:18 12° WSW
Geosat 4.2 22:33:13 52° SW 22:33:33 53° WSW 22:38:29 10° NW
Meteor 2-11 Rocket 4.3 22:32:28 54° S 22:33:59 90° W 22:40:09 10° N
ALOS 2 2.5 22:35:05 85° WNW 22:35:05 85° WNW 22:39:28 10° NNW
Cosmos 1486 Rocket 4.1 22:33:50 52° SW 22:35:02 72° WNW 22:40:16 10° NNE
Cosmos 1733 Rocket 4.2 22:34:35 32° W 22:35:32 36° WNW 22:39:39 10° N
CENTAUR R/B 4.0 22:32:33 10° W 22:38:38 41° NNW 22:45:49 10° NE
SL-16 R/B 3.6 22:37:55 10° NNW 22:43:04 33° NE 22:46:19 19° E
Cosmos 1975 3.2 22:43:45 59° NE 22:43:45 59° NE 22:47:10 10° NNE
Cosmos 2360 Rocket 3.8 22:39:23 10° NW 22:43:24 20° W 22:44:24 19° WSW
Meteor 1-21 4.2 22:41:02 10° NNW 22:46:53 86° ENE 22:47:53 63° SSE
SL-24 DEB 4.1 22:49:02 10° N 22:53:50 87° E 22:53:57 85° SSE
Cosmos 773 Rocket 3.8 22:49:12 10° NNW 22:54:23 86° ENE 22:54:49 75° SE
Helios 1A 3.1 22:59:36 68° NE 22:59:36 68° NE 23:03:35 10° N
Cosmos 968 Rocket 4.0 22:58:02 42° WSW 22:59:22 53° WNW 23:04:25 10° NNE
Cosmos 1782 Rocket 3.6 23:00:31 76° NNW 23:00:31 76° NNW 23:04:37 10° N
Cosmos 44 Rocket 4.2 22:56:56 10° NW 23:00:56 37° WSW 23:00:56 37° WSW
Cosmos 2297 Rocket 2.9 23:02:01 38° ESE 23:02:01 38° ESE 23:07:12 10° NE
Cosmos 1743 4.1 23:03:24 33° WNW 23:03:24 33° WNW 23:06:53 10° N
COSMOS 2428 3.4 22:58:11 10° NW 23:03:29 40° WSW 23:03:51 39° WSW
Meteor 2-9 Rocket 4.1 23:03:15 66° SSW 23:04:09 90° WNW 23:09:57 10° NNE
Cosmos 1980 3.5 22:59:41 10° NNW 23:05:23 82° WSW 23:06:08 68° S
USA 267 3.9 22:59:12 10° ENE 23:05:35 56° NNW 23:11:57 10° W
Cosmos 1538 Rocket 4.0 23:00:25 10° NNW 23:05:36 71° ENE 23:06:16 63° ESE
Lacrosse 4 Rocket 3.0 23:06:12 24° W 23:07:46 31° NW 23:11:32 10° NNE
Cosmos 1908 Rocket 4.4 23:07:34 41° W 23:07:47 41° WNW 23:11:57 10° N
Cosmos 1607 4.2 23:04:11 10° NW 23:10:38 69° NE 23:13:36 34° ESE
In-Cosmos 22 4.4 23:06:18 10° N 23:11:50 61° ENE 23:12:49 52° ESE
Cosmos 2219 3.4 23:13:13 52° ESE 23:13:26 52° ESE 23:18:53 10° NE
Cosmos 2237 Rocket 2.0 23:07:59 10° NNW 23:13:39 76° WSW 23:14:16 68° SSW
Cosmos 2333 Rocket 3.6 23:16:58 10° NW 23:21:32 25° WSW 23:21:43 25° WSW
Timation 2 Rocket 3.8 23:26:06 59° SSW 23:27:21 87° ESE 23:33:24 10° NNE
Meteor 1-12 Rocket 4.3 23:28:45 59° SSE 23:29:50 75° E 23:35:52 10° NNE
Cosmos 1975 Rocket 4.1 23:26:31 10° NNW 23:30:20 36° W 23:30:20 36° W
Cosmos 1674 3.8 23:30:01 10° N 23:33:07 39° NE 23:33:07 39° NE
Cosmos 1300 Rocket 3.6 23:34:20 74° NE 23:34:20 74° NE 23:38:19 10° NNE
Cosmos 1634 Rocket 4.4 23:35:14 43° SE 23:36:44 52° E 23:42:44 10° NNE
Cosmos 1464 Rocket 4.3 23:39:31 43° WSW 23:41:10 56° WNW 23:47:15 10° N
Helios 1B rocket 3.0 23:41:27 10° NNE 23:45:01 48° ENE 23:45:01 48° ENE
Cosmos 1680 Rocket 3.9 23:40:38 10° NNW 23:45:48 56° ENE 23:47:20 41° ESE
Meteor 2-5 Rocket 4.3 23:41:06 10° N 23:46:35 50° ENE 23:48:23 36° ESE
CZ-2D R/B 3.9 23:42:28 10° NE 23:46:37 21° E 23:48:16 19° ESE
Cosmos 1707 3.9 23:44:28 10° NNW 23:47:18 37° WNW 23:47:18 37° WNW
Okean 2 Rocket 3.2 23:50:15 66° WNW 23:50:15 66° WNW 23:54:43 10° N
Nadezhda 4 Rocket 4.3 23:44:43 10° NNW 23:50:48 53° W 23:52:00 46° SW
Okean 1 Rocket 3.7 23:51:41 46° E 23:51:41 46° E 23:55:50 10° NNE
Cosmos 2227 Rocket 2.1 23:51:25 63° S 23:52:12 74° ESE 23:57:53 10° NNE
Cosmos 1777 Rocket 4.0 23:52:43 64° SW 23:53:28 76° WNW 23:58:48 10° NNE
Cosmos 1025 Rocket 3.6 23:49:41 10° NNW 23:53:18 48° WNW 23:53:18 48° WNW
SJ 16-02 2.3 23:55:08 37° E 23:55:08 37° E 23:59:00 10° NE
